Regional Weather Roundup
Issued by NWS Sioux Falls, SD

Home | Current Version | Previous Version | Graphics & Text | Print | Product List | Glossary On
Versions: 1 2 3 4 5 6 7 8 9 10 11 12 13 14 15 16 17 18 19 20 21 22 23 24 25 26 27 28 29 30 31 32 33 34 35 36 37 38 39 40 41 42 43 44 45 46 47 48 49 50
887
ASUS43 KFSD 211602
RWRFSD

WEATHER ROUNDUP FOR SE SOUTH DAKOTA/SW MINNESOTA/NW IOWA
NATIONAL WEATHER SERVICE SIOUX FALLS SD
1100 AM CDT SAT APR 21 2018

NOTE: "FAIR" INDICATES FEW OR NO CLOUDS BELOW 12,000 FEET WITH NO
SIGNIFICANT WEATHER AND OR OBSTRUCTIONS TO VISIBILITY.


SDZ038>040-050-052>070-211700-
SOUTHEAST SOUTH DAKOTA

CITY           SKY/WX    TMP DP  RH WIND       PRES   REMARKS
BROOKINGS      CLOUDY    45  33  63 E8        30.36F
CHAMBERLAIN    CLOUDY    44  43  98 SW7       30.33S
HURON          CLOUDY    43  34  70 S6        30.35S
MADISON        PTSUNNY   41  39  93 E7        30.35F
MITCHELL       CLOUDY    42  34  73 S6        30.35S
SIOUX FALLS    CLOUDY    43  32  65 E8        30.35F
WINNER         LGT RAIN  42  38  85 E5        30.31F FOG
YANKTON        CLOUDY    44  34  67 NE9       30.33F
$$

MNZ071-072-080-081-089-090-097-098-211700-
SOUTHWEST MINNESOTA

CITY           SKY/WX    TMP DP  RH WIND       PRES   REMARKS
FAIRMONT       CLOUDY    38  28  67 E3        30.40S
JACKSON        CLOUDY    37  30  75 CALM      30.39S
LUVERNE        CLOUDY    45  32  61 NE3       30.36F
MARSHALL       NOT AVBL
MONTEVIDEO     MOSUNNY   48  36  61 S5        30.41S
PIPESTONE      CLOUDY   N/A N/A N/A E6        30.36S
REDWOOD FALLS  CLOUDY    43  30  60 SE6       30.40F
TRACY          CLOUDY    41  33  73 CALM      30.39S
WINDOM         CLOUDY    39  21  48 E8        30.39S
WORTHINGTON    CLOUDY    40  33  76 NE7       30.38S
$$

IAZ001>003-012>014-020>022-031-032-NEZ013-014-SDZ071-211700-
NORTHWEST IOWA

CITY           SKY/WX    TMP DP  RH WIND       PRES   REMARKS
CHEROKEE       CLOUDY    43  34  69 E7        30.35S
DENISON        CLOUDY    52  30  43 SE13      30.33S
ESTHERVILLE    CLOUDY    37  30  75 N10       30.38F
LE MARS        CLOUDY    46  34  61 E7        30.35R
ORANGE CITY    CLOUDY    46  36  66 E6        30.35S
SHELDON        CLOUDY    48  36  61 E10       30.34S
SIOUX CITY     CLOUDY    45  33  63 E9        30.32F
SPENCER        CLOUDY    42  32  67 E9        30.36F
STORM LAKE     CLOUDY    41  36  81 NE12      30.33F
$$

ABBREVIATIONS USED IN REMARKS
   TC - TEMPERATURE IN CELSIUS
  WCI - WIND CHILL INDEX
   HX - HEAT INDEX
  VSB - VISIBILITY





USA.gov is the U.S. government's official web portal to all federal, state and local government web resources and services.